Location: Fontevrault
(47.1823°N, 0.0493°E)
Time: 16:11:40
(UTC+00:00)

ARIANE 5 R/B - Pass Details

Date: 16 June 2021
Orbit: 620 x 656 km, 98.1° (Epoch: 28 July)

Event Time Altitude Azimuth Distance (km) Brightness Sun altitude
Exits shadow 21:43:40 13° 185° (S) 1,830 4.5 -13.0°
Maximum altitude 21:47:28 51° 260° (W) 811 3.3 -13.3°
Drops below altitude 10° 21:51:51 10° 337° (NNW) 2,061 6.7 -13.7°
Sets 21:54:09 0° 342° (NNW) 2,982 7.8 -13.9°
